Location: Sternwarte_Laufen
(47.9344°N, 12.9346°E)
Time: 00:43:05
(UTC+02:00)

ISS - Pass Details

Date: 20 May 2017
Orbit: 402 x 408 km, 51.6° (Epoch: 27 May)

Event Time Altitude Azimuth Distance (km) Brightness Sun altitude
Exits shadow 03:48:01 - 287° (WNW) 2,332 -0.2 -12.9°
Rises 03:48:01 0° 287° (WNW) 2,330 -0.2 -12.9°
Reaches altitude 10° 03:50:10 10° 294° (WNW) 1,468 -1.2 -12.6°
Maximum altitude 03:53:21 45° 8° (N) 561 -2.7 -12.3°
Drops below altitude 10° 03:56:31 10° 84° (E) 1,462 -0.3 -12.0°
Sets 03:58:39 0° 91° (E) 2,319 0.7 -11.7°
